Flag for U.S.A. Weather past 2 weeks in Lexington, North Carolina, U.S.A.

Now
74 °F

Sunny.


Feels Like: 76 °F
Forecast: 59 / 83 °F
Wind: No wind

Location: Davidson County Airport

Current Time: Aug 29, 2015 at 7:35:55 PM

Latest Report: Aug 29, 2015 at 6:55 PM


Visibility: 10 mi

Pressure: 30.14 "Hg

Humidity: 68%

Dew point: 63 °F

Location of LexingtonLocation

Historic Weather in Lexington — Graph

°F

Lexington temperature yesterday

Maximum temperature yesterday: 84 °F (at 3:55 PM)
Minimum temperature yesterday: 59 °F (at 5:15 AM)
Average temperature yesterday: 71 °F

Past Weeks' High & Low Weather Summary

 TemperatureHumidityPressure
High90 °F (Aug 16, 3:55 PM)99% (Aug 18, 2:55 AM)30.26 "Hg (Aug 18, 2:55 AM)
Low59 °F (Aug 28, 5:15 AM)42% (Aug 15, 4:55 PM)29.87 "Hg (Aug 24, 5:35 PM)
Average74 °F77%30.06 "Hg
* Reported Aug 14 6:35 PM — Aug 29 6:35 PM, Lexington, Weather by CustomWeather, © 2015

Note: Actual official high and low records may vary slightly from our data, if they occured in-between our weather recording intervals... More about our weather records

Advertising

Lexington weather history for previous 24 hours

 ConditionsComfort  
Time TempWeatherWind HumidityBarometerVisibility
6:35 PM
Sat, Aug 29
76 °FSunny.No wind68%30.13 "Hg10 mi
6:15 PM80 °FSunny.3 mph55%30.14 "Hg10 mi
5:55 PM81 °FSunny.No wind50%30.14 "Hg10 mi
5:15 PM83 °FScattered clouds.No wind45%30.15 "Hg10 mi
4:55 PM83 °FScattered clouds.No wind45%30.16 "Hg10 mi
4:35 PM83 °FScattered clouds.No wind46%30.16 "Hg10 mi
4:15 PM84 °FSunny.3 mph45%30.17 "Hg10 mi
3:55 PM83 °FSunny.No wind46%30.18 "Hg10 mi
3:35 PM83 °FSunny.No wind43%30.19 "Hg10 mi
3:15 PM82 °FScattered clouds.5 mph44%30.19 "Hg10 mi
2:55 PM83 °FScattered clouds.No wind44%30.20 "Hg10 mi
2:35 PM83 °FScattered clouds.3 mph50%30.21 "Hg10 mi
2:15 PM81 °FSunny.No wind54%30.21 "Hg10 mi
1:55 PM81 °FSunny.No wind54%30.22 "Hg10 mi
1:35 PM79 °FSunny.No wind58%30.23 "Hg10 mi
1:15 PM79 °FSunny.No wind59%30.23 "Hg10 mi
12:55 PM78 °FSunny.No wind59%30.24 "Hg10 mi
12:15 PM78 °FSunny.No wind61%30.25 "Hg10 mi
11:55 AM78 °FSunny.No wind58%30.25 "Hg10 mi
11:35 AM77 °FSunny.No wind63%30.25 "Hg10 mi
11:15 AM75 °FSunny.No wind65%30.26 "Hg10 mi
10:55 AM75 °FSunny.No wind65%30.25 "Hg10 mi
10:35 AM74 °FSunny.No wind66%30.25 "Hg10 mi
10:15 AM74 °FSunny.No wind65%30.25 "Hg10 mi
9:55 AM73 °FSunny.No wind68%30.25 "Hg10 mi
9:35 AM72 °FSunny.No wind74%30.25 "Hg10 mi
9:15 AM69 °FSunny.No wind81%30.25 "Hg10 mi
8:55 AM67 °FSunny.No wind84%30.25 "Hg10 mi
8:35 AM65 °FSunny.No wind88%30.25 "Hg10 mi
7:55 AM61 °FSunny.No wind96%30.25 "Hg7 mi
7:35 AM60 °FFog.No wind97%30.24 "Hg5 mi
7:15 AM59 °FFog.No wind97%30.23 "Hg5 mi
6:55 AM60 °FClear.No wind98%30.22 "Hg7 mi
5:55 AM59 °FFog.No wind98%30.21 "Hg4 mi
5:15 AM59 °FFog.No wind98%30.19 "Hg4 mi
4:55 AM60 °FFog.No wind98%30.19 "Hg5 mi
3:55 AM60 °FFog.No wind97%30.19 "Hg5 mi
3:15 AM61 °FClear.No wind96%30.19 "Hg7 mi
2:55 AM61 °FClear.No wind96%30.20 "Hg7 mi
1:55 AM62 °FClear.No wind96%30.21 "Hg10 mi
1:35 AM62 °FClear.No wind96%30.21 "Hg10 mi
1:15 AM62 °FClear.No wind95%30.21 "Hg10 mi
12:55 AM63 °FClear.No wind94%30.21 "Hg10 mi
12:35 AM64 °FClear.No wind93%30.21 "Hg10 mi
11:55 PM
Fri, Aug 28
64 °FClear.No wind92%30.21 "Hg10 mi
11:15 PM65 °FClear.No wind85%30.20 "Hg10 mi
10:55 PM66 °FClear.No wind83%30.20 "Hg10 mi
10:35 PM67 °FClear.No wind80%30.19 "Hg10 mi
10:15 PM67 °FClear.No wind82%30.19 "Hg10 mi
9:55 PM68 °FClear.No wind78%30.19 "Hg10 mi
9:15 PM71 °FClear.No wind69%30.17 "Hg10 mi
8:55 PM71 °FClear.No wind70%30.16 "Hg10 mi
8:35 PM70 °FSunny.No wind71%30.16 "Hg10 mi
8:15 PM72 °FSunny.No wind66%30.14 "Hg10 mi
7:55 PM72 °FSunny.No wind66%30.14 "Hg10 mi
7:35 PM76 °FSunny.No wind59%30.13 "Hg10 mi
7:15 PM79 °FScattered clouds.No wind51%30.13 "Hg10 mi
Weather by CustomWeather, © 2015

See weather overviewHow to use our weather pages